Regional Weather Roundup
Issued by NWS Green Bay, WI

Home | Current Version | Previous Version | Graphics & Text | Print | Product List | Glossary Off
Versions: 1 2 3 4 5 6 7 8 9 10 11 12 13 14 15 16 17 18 19 20 21 22 23 24 25 26 27 28 29 30 31 32 33 34 35 36 37 38 39 40 41 42 43 44 45 46 47 48 49 50

000
ASUS43 KGRB 221900
RWRGRB

NORTH-CENTRAL AND NORTHEAST WISCONSIN REGIONAL WEATHER ROUNDUP
NATIONAL WEATHER SERVICE GREEN BAY WI
100 PM CST WED FEB 22 2017

WIZ005-009-010>012-018-019-222000-
NORTH CENTRAL WISCONSIN

CITY           SKY/WX    TMP DP  RH WIND       PRES   REMARKS
IRONWOOD       CLOUDY    44  37  76 N5        29.59F
MANITOWISH WTR NOT AVBL
ARBOR VITAE    NOT AVBL
EAGLE RIVER    NOT AVBL
LAND O LAKES   CLOUDY    48  39  71 N7        29.61R
RHINELANDER    CLOUDY    55  41  59 VRB5      29.57S
PHILLIPS       CLOUDY    49  41  75 N7        29.57F
ANTIGO         NOT AVBL
TOMAHAWK       NOT AVBL
MERRILL        NOT AVBL
$$

WIZ013-073-222000-
NORTHEAST WISCONSIN

CITY           SKY/WX    TMP DP  RH WIND       PRES   REMARKS
IRON MOUNTAIN  CLOUDY    54  38  54 NE6       29.53F
MARINETTE      MOSUNNY   56  42  59 SE10      29.57F
$$

WIZ017-030-035>037-045-222000-
CENTRAL WISCONSIN

CITY           SKY/WX    TMP DP  RH WIND       PRES   REMARKS
MEDFORD        NOT AVBL
WAUSAU         MOSUNNY   53  36  52 S7        29.54F
MOSINEE        PTSUNNY   55  37  50 SW6       29.57F
MARSHFIELD     CLOUDY    56  37  49 SW7       29.55F
WISC RAPIDS    CLOUDY    61  37  41 SW8       29.56F
STEVENS POINT  NOT AVBL
WAUPACA        NOT AVBL
SHAWANO        CLOUDY    60  43  53 W6        29.56F
CLINTONVILLE   NOT AVBL
WAUTOMA        MOSUNNY   67  44  43 SW12      29.55F
$$

WIZ038-039-048-051-222000-
FOX VALLEY

CITY           SKY/WX    TMP DP  RH WIND       PRES   REMARKS
NWS GREEN BAY  MOSUNNY   61  50  67 SW13      29.56F
APPLETON       PTSUNNY   63  45  51 SW9       29.55F
OSHKOSH        SUNNY     63  49  60 SW15G22   29.56F
FOND DU LAC    SUNNY     65  47  52 SW18G26   29.56F
$$

WIZ022-050-052-222000-
EAST CENTRAL WISCONSIN

CITY           SKY/WX    TMP DP  RH WIND       PRES   REMARKS
EPHRAIM        NOT AVBL
WASHINGTON ISL NOT AVBL
STURGEON BAY   MOSUNNY   51  44  77 SE9       29.58F
MANITOWOC      NOT AVBL
SHEBOYGAN      SUNNY     68  44  42 S18G26    29.57F
$$

LMZ563-521-522-541>543-222000-
LAKESHORE

STATION/POSITION TIME  TEMP    WIND        PRES    VSBY  WAVE
                       AIR SEA DIR/SP/G                  HT/PER
                 (UTC) (F)     (DEG/KT/KT) (MB)    (MI)  (FT/S)
SHEBOYGAN LKSHOR 1800   41     170/ 20/ 22 1003.0F
KEWAUNEE LKSHORE 1830   38     180/ 14/ 15 1001.9F
NORTHPORT PIER   1840   44     150/ 11/ 16 1002.0F
SISTER BAY LKSHO 1805   59     170/ 11/ 13   N/A
CHAMBERS ISLAND  1840   53     150/  5/  9 1001.4F
MENOMINEE LKSHOR 1830   42     140/  6/  8 1000.7F
$$




USA.gov is the U.S. government's official web portal to all federal, state and local government web resources and services.